logo
Rechercher aéroport 
image banner adimage banner adimage banner ad
image banner ad

FALE - King Shaka International

Situé à Durban, South Africa

ICAO - FALE, IATA - DUR

Données fournies par Airmate  

Information générale

Coordonnées: S29°36'42" E31°7'10"
Élévation : 304 feet MSL.
Variation magnétique : -25° East
Voir autres Aéroports à Kwazulu-Natal

Données opérationnelles

Special qualification required
Heure actuelle UTC:
Heure actuelle locale:
Météo
METAR: FALE 151900Z 21002KT 9999 BKN043 12/08 Q1022 NOSIG
TAF: TAF FALE 151600Z 1518/1624 VRB02KT 9999 SCT030 TX23/1612Z TN11/1603Z FM160600 33005KT CAVOK BECMG 1612/1614 04005KT
Voir NOTAMs / SUP AIP / TFR affectant cet aéroport [VIEW]
Fréquences de communication: [VIEW]

Pistes:

Identifiant RWYQFULongueur (ft)Largeur (ft)SurfaceLDA (ft)
0637°12115187ASPH12139
24217°12115187ASPH12139

Coordonnées de l'aéroport

Adresse: Durban South Africa

Autres services d'aviation

Écoles de pilotage

Ballito Microlight

Ballito Microlight
comefly@mweb.co.za+27842663359

Vue satellite de FALE